Tracking 27122 objects as of 26-Mar-2023
HD Live streaming from Space Station
objects crossing your sky now

STARLINK-1732

Track STARLINK-1732 now!
10-day predictions
STARLINK-1732 is classified as:


NORAD ID: 46584
Int'l Code: 2020-070BE
Perigee: 554.0 km
Apogee: 555.8 km
Inclination: 53.1 °
Period: 95.6 minutes
Semi major axis: 6925 km
RCS: Unknown
Launch date: October 6, 2020
Source: United States (US)
Launch site: AIR FORCE EASTERN TEST RANGE (AFETR)
Your satellite tracking list
Your tracking list is empty




NASA's NSSDC Master Catalog

Two Line Element Set (TLE):
1 46584U 20070BE  23084.94493441  .00041431  00000-0  27973-2 0  9994
2 46584  53.0521 323.7799 0001356 113.4034 246.7098 15.06222930137047
Source of the keplerian elements: AFSPC